Weather History for Rolla, MO

Change the Weather History Date:

Thursday, November 22, 2012

  Actual Average Record
Temperature  
Mean Temperature 58 °F 42 °F  
Max Temperature 68 °F 52 °F 73 °F (2010)
Min Temperature 48 °F 32 °F 9 °F (1898)
Degree Days  
Heating Degree Days 7 23  
Month to date heating degree days 398 398  
Since 1 July heating degree days 863 748  
Cooling Degree Days 0 0  
Month to date cooling degree days 2 0  
Year to date cooling degree days 1693 1243  
Growing Degree Days 8 (Base 50)    
Moisture  
Dew Point 45 °F    
Average Humidity 68    
Maximum Humidity 88    
Minimum Humidity 42    
Precipitation  
Precipitation 0.27 in 0.14 in 1.46 in (1963)
Month to date precipitation 1.26 2.83  
Year to date precipitation 30.92 39.93  
Sea Level Pressure  
Sea Level Pressure 30.02 in    
Wind  
Wind Speed 14 mph (SSW)    
Max Wind Speed 23 mph    
Max Gust Speed 30 mph    
Visibility 9 miles    
Events Rain , Thunderstorm    
T = Trace of Precipitation, MM = Missing Value Source: NWS Daily Summary

Daily Weather History Graph

Daily Weather History Graph

Search for Another Location

Airport:

Trip Planner

Search our weather history database for the weather conditions in past years. The results will help you decide how hot, cold, wet, or windy it might be!

Date:

Astronomy

Nov. 22, 2012 Rise Set
Actual Time 6:56 AM CST 4:50 PM CST
Civil Twilight 6:27 AM CST 5:19 PM CST
Nautical Twilight 5:55 AM CST 5:51 PM CST
Astronomical Twilight 5:23 AM CST 6:22 PM CST
Moon 1:32 PM CST (11/22) 1:20 AM CST (11/22)
Length of Visible Light 10h 51m
Length of Day
9h 54m
Waxing Gibbous, 71% of the Moon is Illuminated
Nov 22
Waxing Gibbous
Nov 28
Full
Dec 6
Last Quarter
Dec 13
New
Dec 19
First Quarter

Hourly Weather History & Observations

Time (CST) Temp. Dew Point Humidity Pressure Visibility Wind Dir Wind Speed Gust Speed Precip Events Conditions
12:53 AM 50.0 °F 42.1 °F 74% 30.09 in 10.0 mi South 11.5 mph - N/A   Clear
1:53 AM 48.9 °F 42.1 °F 77% 30.09 in 10.0 mi South 12.7 mph - N/A   Clear
2:53 AM 48.9 °F 42.1 °F 77% 30.08 in 10.0 mi South 13.8 mph - N/A   Clear
3:53 AM 50.0 °F 42.1 °F 74% 30.06 in 10.0 mi South 13.8 mph - N/A   Clear
4:53 AM 50.0 °F 42.1 °F 74% 30.05 in 10.0 mi South 15.0 mph - N/A   Clear
5:53 AM 51.1 °F 42.1 °F 71% 30.05 in 10.0 mi South 15.0 mph - N/A   Clear
6:53 AM 51.1 °F 42.1 °F 71% 30.04 in 10.0 mi South 17.3 mph - N/A   Clear
7:53 AM 52.0 °F 42.1 °F 69% 30.05 in 10.0 mi South 16.1 mph 23.0 mph N/A   Clear
8:53 AM 55.9 °F 41.0 °F 57% 30.04 in 10.0 mi South 16.1 mph - N/A   Clear
9:53 AM 59.0 °F 39.9 °F 49% 30.04 in 10.0 mi South 15.0 mph - N/A   Clear
10:53 AM 61.0 °F 42.1 °F 50% 30.02 in 10.0 mi South 16.1 mph 21.9 mph N/A   Clear
11:53 AM 66.0 °F 44.1 °F 45% 29.99 in 10.0 mi South 16.1 mph 25.3 mph N/A   Clear
12:53 PM 68.0 °F 44.1 °F 42% 29.96 in 10.0 mi South 19.6 mph - N/A   Clear
1:53 PM 66.9 °F 45.0 °F 45% 29.94 in 10.0 mi South 15.0 mph 23.0 mph N/A   Clear
2:53 PM 66.9 °F 45.0 °F 45% 29.92 in 10.0 mi South 12.7 mph 23.0 mph N/A   Clear
3:53 PM 64.9 °F 45.0 °F 48% 29.93 in 10.0 mi SSW 12.7 mph - N/A   Mostly Cloudy
4:53 PM 62.1 °F 45.0 °F 53% 29.96 in 10.0 mi SSW 13.8 mph - N/A   Mostly Cloudy
5:53 PM 57.9 °F 48.9 °F 72% 29.99 in 4.0 mi SSW 10.4 mph - 0.04 in Rain , Thunderstorm Heavy Thunderstorms and Rain
5:57 PM 57.2 °F 48.2 °F 72% 29.99 in 2.5 mi SSW 12.7 mph - 0.04 in Rain , Thunderstorm Heavy Thunderstorms and Rain
6:05 PM 55.4 °F 50.0 °F 82% 29.98 in 1.8 mi SSW 9.2 mph - 0.14 in Rain , Thunderstorm Heavy Thunderstorms and Rain
6:09 PM 55.4 °F 50.0 °F 82% 29.98 in 3.0 mi South 9.2 mph - 0.15 in Rain , Thunderstorm Light Thunderstorms and Rain
6:32 PM 55.4 °F 51.8 °F 88% 30.01 in 7.0 mi SW 8.1 mph - 0.18 in Rain Light Rain
6:53 PM 55.0 °F 51.1 °F 86% 30.01 in 9.0 mi SSW 10.4 mph - 0.23 in Rain Light Rain
7:53 PM 55.0 °F 50.0 °F 83% 30.01 in 10.0 mi South 11.5 mph - 0.00 in   Overcast
8:53 PM 55.0 °F 50.0 °F 83% 30.01 in 10.0 mi South 12.7 mph - N/A   Overcast
9:53 PM 55.0 °F 50.0 °F 83% 30.07 in 10.0 mi WSW 8.1 mph - N/A   Overcast
10:08 PM 53.6 °F 50.0 °F 88% 30.08 in 10.0 mi WSW 6.9 mph - N/A   Overcast
10:53 PM 54.0 °F 42.1 °F 64% 30.10 in 10.0 mi NW 12.7 mph - N/A   Overcast
11:53 PM 51.1 °F 37.0 °F 59% 30.14 in 10.0 mi NNW 15.0 mph 25.3 mph N/A   Mostly Cloudy